This is the latest recevied weather packets stored in our database for station/object KC9GSD. If no packets are shown the sender has not sent any weather packets the latest 10 day(s).
| Time | Temp. | Humidity | Pressure | Rain* | Wind** | Luminosity | Snow |
|---|---|---|---|---|---|---|---|
| 1778340289 | 18.33° C | 80% | 1013 hPa | 0 mm | - | 821 W/m² | - |
| 1778339987 | 18.33° C | 81% | 1013 hPa | 0 mm | - | 313 W/m² | - |
| 1778339683 | 18.33° C | 81% | 1013.2 hPa | 0 mm | - | 483 W/m² | - |
| 1778339381 | 17.78° C | 86% | 1013.1 hPa | 0 mm | - | 202 W/m² | - |
| 1778339078 | 17.78° C | 83% | 1013.3 hPa | 0 mm | - | 163 W/m² | - |
| 1778338776 | 17.78° C | 81% | 1013 hPa | 0 mm | - | 230 W/m² | - |
| 1778338471 | 17.78° C | 82% | 1013.2 hPa | 0 mm | - | 263 W/m² | - |
| 1778338167 | 17.78° C | 84% | 1012.9 hPa | 0 mm | - | 316 W/m² | - |
| 1778337864 | 17.22° C | 85% | 1012.9 hPa | 0 mm | - | 307 W/m² | - |
| 1778337561 | 17.22° C | 86% | 1012.9 hPa | 0 mm | - | 202 W/m² | - |
| 1778337258 | 17.22° C | 87% | 1012.8 hPa | 0 mm | - | 154 W/m² | - |
| 1778336954 | 16.67° C | 85% | 1012.9 hPa | 0 mm | - | 168 W/m² | - |
| 1778336651 | 17.22° C | 86% | 1013.1 hPa | 0 mm | - | 210 W/m² | - |
| 1778336347 | 16.67° C | 86% | 1013 hPa | 0 mm | - | 202 W/m² | - |
| 1778336044 | 16.67° C | 86% | 1013 hPa | 0 mm | - | 186 W/m² | - |
| 1778335740 | 16.67° C | 87% | 1012.8 hPa | 0 mm | - | 170 W/m² | - |
| 1778335437 | 16.67° C | 87% | 1012.9 hPa | 0 mm | - | 176 W/m² | - |
| 1778335135 | 16.67° C | 87% | 1012.7 hPa | 0 mm | - | 183 W/m² | - |
| 1778334832 | 16.11° C | 88% | 1012.4 hPa | 0 mm | - | 185 W/m² | - |
| 1778334530 | 16.11° C | 89% | 1012.4 hPa | 0 mm | - | 186 W/m² | - |
| 1778334227 | 16.11° C | 89% | 1012.4 hPa | 0 mm | - | 146 W/m² | - |
| 1778333923 | 16.11° C | 92% | 1012.2 hPa | 0 mm | - | 156 W/m² | - |
| 1778333620 | 16.11° C | 91% | 1012.1 hPa | 0 mm | - | 183 W/m² | - |
| 1778333319 | 15.56° C | 92% | 1012.1 hPa | 0 mm | - | 150 W/m² | - |
| 1778333017 | 15.56° C | 93% | 1012 hPa | 0 mm | - | 158 W/m² | - |
* Rain latest hour (hover to see other rain measurements)
** Current wind speed in m/s (hover to see current wind gust speed)